Weather History for Salina, KS

Change the Weather History Date:

Tuesday, December 7, 2010

  Actual Average Record
Temperature  
Mean Temperature 31 °F 34 °F  
Max Temperature 43 °F 44 °F 68 °F (1933)
Min Temperature 19 °F 24 °F -4 °F (1908)
Degree Days  
Heating Degree Days 34 31  
Month to date heating degree days 224 210  
Since 1 July heating degree days 1072 1162  
Cooling Degree Days 0 0  
Month to date cooling degree days 0 0  
Year to date cooling degree days 1872 1647  
Moisture  
Dew Point 21 °F    
Average Humidity 71    
Maximum Humidity 92    
Minimum Humidity 49    
Precipitation  
Precipitation 0.00 in 0.04 in 1.36 in (1980)
Month to date precipitation 0.00 0.26  
Year to date precipitation 27.60 30.82  
Sea Level Pressure  
Sea Level Pressure 30.26 in    
Wind  
Wind Speed 3 mph (ENE)    
Max Wind Speed 10 mph    
Max Gust Speed 13 mph    
Visibility 9 miles    
Events      
T = Trace of Precipitation, MM = Missing Value Source: NWS Daily Summary

Daily Weather History Graph

Daily Weather History Graph

Search for Another Location

Airport:

Trip Planner

Search our weather history database for the weather conditions in past years. The results will help you decide how hot, cold, wet, or windy it might be!

Date:

Astronomy

Dec. 07, 2010 Rise Set
Actual Time 7:35 AM CST 5:08 PM CST
Civil Twilight 7:05 AM CST 5:38 PM CST
Nautical Twilight 6:32 AM CST 6:11 PM CST
Astronomical Twilight 6:00 AM CST 6:43 PM CST
Moon 9:22 AM CST (12/7) 7:08 PM CST (12/7)
Length of Visible Light 10h 32m
Length of Day
9h 33m
Waxing Crescent, 5% of the Moon is Illuminated
Dec 7
Waxing Crescent
Dec 13
First Quarter
Dec 21
Full
Dec 27
Last Quarter
Jan 4
New

Hourly Weather History & Observations

Time (CST) Temp. Windchill Dew Point Humidity Pressure Visibility Wind Dir Wind Speed Gust Speed Precip Events Conditions
12:53 AM 21.2 °F - 17.6 °F 86% 30.19 in 10.0 mi Calm Calm - N/A   Clear
1:53 AM 21.0 °F - 17.1 °F 85% 30.21 in 10.0 mi Calm Calm - N/A   Clear
2:53 AM 21.0 °F 14.6 °F 17.1 °F 85% 30.21 in 9.0 mi SE 4.6 mph - N/A   Clear
3:53 AM 21.9 °F - 17.1 °F 82% 30.20 in 9.0 mi Calm Calm - N/A   Clear
4:53 AM 23.0 °F - 19.0 °F 85% 30.20 in 9.0 mi Calm Calm - N/A   Clear
5:53 AM 23.0 °F - 19.0 °F 85% 30.21 in 9.0 mi Calm Calm - N/A   Clear
6:53 AM 23.0 °F - 19.0 °F 85% 30.22 in 10.0 mi Calm Calm - N/A   Clear
7:53 AM 21.9 °F - 19.0 °F 89% 30.23 in 7.0 mi Calm Calm - N/A   Clear
8:53 AM 26.1 °F - 21.0 °F 81% 30.25 in 7.0 mi Calm Calm - N/A   Clear
9:53 AM 30.0 °F 24.1 °F 23.0 °F 75% 30.27 in 8.0 mi East 5.8 mph - N/A   Clear
10:53 AM 36.0 °F 31.1 °F 25.0 °F 64% 30.27 in 10.0 mi ENE 5.8 mph - N/A   Clear
11:53 AM 39.0 °F 35.7 °F 25.0 °F 57% 30.25 in 10.0 mi East 4.6 mph - N/A   Clear
12:53 PM 39.9 °F 35.8 °F 26.1 °F 58% 30.24 in 10.0 mi ENE 5.8 mph - N/A   Clear
1:53 PM 42.1 °F 37.7 °F 26.1 °F 53% 30.23 in 10.0 mi ENE 6.9 mph - N/A   Clear
2:53 PM 42.1 °F 37.1 °F 25.0 °F 51% 30.23 in 10.0 mi East 8.1 mph - N/A   Clear
3:53 PM 41.0 °F 36.4 °F 24.1 °F 51% 30.25 in 10.0 mi ENE 6.9 mph - N/A   Clear
4:53 PM 39.0 °F 35.7 °F 23.0 °F 53% 30.27 in 10.0 mi ENE 4.6 mph - N/A   Clear
5:53 PM 37.0 °F 33.3 °F 21.9 °F 54% 30.30 in 10.0 mi ENE 4.6 mph - N/A   Clear
6:53 PM 35.1 °F 32.2 °F 21.9 °F 59% 30.32 in 10.0 mi NE 3.5 mph - N/A   Clear
7:53 PM 34.0 °F 28.8 °F 21.0 °F 59% 30.32 in 10.0 mi East 5.8 mph - N/A   Clear
8:53 PM 30.0 °F 26.5 °F 19.0 °F 64% 30.32 in 10.0 mi East 3.5 mph - N/A   Clear
9:53 PM 28.4 °F - 19.4 °F 69% 30.28 in 9.0 mi Calm Calm - N/A   Clear
10:53 PM 25.0 °F - 18.0 °F 75% 30.32 in 8.0 mi Calm Calm - N/A   Clear
11:53 PM 23.0 °F - 17.1 °F 78% 30.34 in 8.0 mi Calm Calm - N/A   Clear